{"data":{"norad_id":63692,"epoch":"2026-09-21T22:08:59.811936Z","epoch_age_seconds":84717,"freshness":"FRESH","line1":"1 63692U 25086F   26264.92291449 -.00000055  00000+0 -16164-3 0  9999","line2":"2 63692  86.4962 280.4208 0001837  79.7577 280.3765 13.24411522 67669","mean_motion":13.24411522,"eccentricity":0.0001837,"inclination_deg":86.4962,"raan_deg":280.4208,"arg_perigee_deg":79.7577,"mean_anomaly_deg":280.3765,"bstar":-0.00016164,"rev_number":6766,"period_min":108.72753491494,"perigee_km":1166.5301943799,"apogee_km":1169.3026144007,"semimajor_km":7546.0534043903,"source":"CELESTRAK","updated_at":"2026-09-22T09:00:29.283018Z"}}